Date,TemperatureHighF,TemperatureAvgF,TemperatureLowF,DewpointHighF,DewpointAvgF,DewpointLowF,HumidityHigh,HumidityAvg,HumidityLow,PressureMaxIn,PressureMinIn,WindSpeedMaxMPH,WindSpeedAvgMPH,GustSpeedMaxMPH,PrecipitationSumIn
2013-8-1,71,56,41,-100,-100,-100,0,0,100,0.00,40.00,0,-999,0,0.00
2013-8-2,66,57,45,-100,-100,-100,0,0,100,0.00,40.00,0,-999,0,0.00
2013-8-3,68,57,43,-100,-100,-100,0,0,100,0.00,40.00,0,-999,0,0.00
2013-8-4,70,62,52,-100,-100,-100,0,0,100,0.00,40.00,0,-999,0,0.00
2013-8-5,71,57,42,-100,-100,-100,0,0,100,0.00,40.00,0,-999,0,0.00
2013-8-6,67,60,45,-100,-100,-100,0,0,100,0.00,40.00,0,-999,0,0.00
2013-8-7,68,54,39,-100,-100,-100,0,0,100,0.00,40.00,0,-999,0,0.00
2013-8-8,65,50,40,-100,-100,-100,0,0,100,0.00,40.00,0,-999,0,0.01
2013-8-9,56,49,41,-100,-100,-100,0,0,100,0.00,40.00,0,-999,0,0.01
2013-8-10,65,54,40,-100,-100,-100,0,0,100,0.00,40.00,0,-999,0,0.00
2013-8-11,62,50,39,-100,-100,-100,0,0,100,0.00,40.00,0,-999,0,0.01
2013-8-12,61,50,40,-100,-100,-100,0,0,100,0.00,40.00,0,-999,0,0.00
2013-8-13,58,47,39,-100,-100,-100,0,0,100,0.00,40.00,0,-999,0,0.00
2013-8-14,66,53,38,-100,-100,-100,0,0,100,0.00,40.00,0,-999,0,0.00
2013-8-15,69,56,41,-100,-100,-100,0,0,100,0.00,40.00,0,-999,0,0.00
2013-8-16,72,59,43,-100,-100,-100,0,0,100,0.00,40.00,0,-999,0,0.00
2013-8-17,71,62,47,-100,-100,-100,0,0,100,0.00,40.00,0,-999,0,0.00
2013-8-18,71,62,54,-100,-100,-100,0,0,100,0.00,40.00,0,-999,0,0.00
2013-8-19,71,60,45,-100,-100,-100,0,0,100,0.00,40.00,0,-999,0,0.00
2013-8-20,65,58,50,-100,-100,-100,0,0,100,0.00,40.00,0,-999,0,0.01
2013-8-21,61,54,46,-100,-100,-100,0,0,100,0.00,40.00,0,-999,0,0.00
2013-8-22,68,56,44,-100,-100,-100,0,0,100,0.00,40.00,0,-999,0,0.00
2013-8-23,67,57,47,-100,-100,-100,0,0,100,0.00,40.00,0,-999,0,0.00
2013-8-24,66,57,47,-100,-100,-100,0,0,100,0.00,40.00,0,-999,0,0.00
2013-8-25,65,57,52,-100,-100,-100,0,0,100,0.00,40.00,0,-999,0,0.00
2013-8-26,60,55,52,-100,-100,-100,0,0,100,0.00,40.00,0,-999,0,0.00
2013-8-27,61,54,45,-100,-100,-100,0,0,100,0.00,40.00,0,-999,0,0.00
2013-8-28,69,60,48,-100,-100,-100,0,0,100,0.00,40.00,0,-999,0,0.00
2013-8-29,69,58,46,-100,-100,-100,0,0,100,0.00,40.00,0,-999,0,0.00
2013-8-30,70,60,45,-100,-100,-100,0,0,100,0.00,40.00,0,-999,0,0.00
2013-8-31,70,58,49,-100,-100,-100,0,0,100,0.00,40.00,0,-999,0,0.00